FENGYUN 1C DEB, 33745

Orbit data source: Space-Track

FENGYUN 1C DEB, 33745 is space debris in SSO originally from a launch on Mon, 10 May 1999 UTC launched from the Taiyaun Space Center, China (TSC). Fengyun 1C debris stems from the Chinese weather satellite Fengyun-1C, which was intentionally destroyed by a Chinese anti-satellite missile in 2007. This event dramatically increased the amount of space debris, with thousands of trackable fragments posing hazards to satellites and human spaceflight. The Fengyun 1C debris cloud has become a focal point in discussions about space sustainability and the need for international regulations to prevent the creation of new debris.

Loading next visibility...
Identifier
33745, 1999-025DJJ
Orbit
SSO
Country
Flag of CNCN / PRC
Related business
Manufacturer
Unknown
Mission
Spacecraft
Bus & Motor
Unknown
Mass
Unknown
Launch date (UTC)
1999-05-10 (27 years ago)
Launch vehicle
Unknown
Launch site
Taiyaun Space Center, China (TSC)
Object type
Payload
Rocket body
Debris
Shape & HBR
Unknown shape, 0.1 m
Radar Cross Section
Small (<0.1 m²)

Expand to show TLE details & history
Last TLE update: 20 hours ago

TLE from 20 hours ago
0 FENGYUN 1C DEB
1 33745U 99025DJJ 26256.11014200  .00001634  00000-0  72514-3 0  9993
2 33745  99.0958 307.5558 0053521 201.4694 158.4239 14.23753931699047
Epoch: 2026-09-13T02:38Z
TLE epoch observation values (Epoch: 2026-09-13T02:38:36.268Z)
Latitude
0.00001°
Longitude
-84.20482°
Altitude
851.416 km
Speed
7.408 km/s
True Right ascension
20h 30m 13s
True Declination
0° 00' 00"
Sunlit
Object was in full shadow at epoch
Visualization orbit readout
Latitude
Unknown
Longitude
Unknown
Altitude
Unknown
Speed
Unknown
Apparent Right ascension
Unknown
Apparent Declination
Unknown
Sunlit
N/A
Visualization observer readout
Local Sidereal Time
15:17:06
Azimuth
Unknown
Elevation
Unknown
Doppler factor
Unknown
Orbital elements
Apogee altitude
848.328 km
Perigee altitude
771.387 km
Semi-major axis
7,187.995 km
Eccentricity
0.00535
Inclination
99.0958°
RAAN
307.5558°
Arg. of periapsis
201.4694°
True anomaly
158.64804°
Mean anomaly
158.4239°
Eccentric anomaly
158.53611°
Mean motion
3.56149 °/min
Orbital period
101.08 mins
BSTAR
0.00072514
Loading maneuver chart data...
Computing Atmospheric mass density...
Loading historical data...
Loading historical data...
Loading historical data...
Loading historical data...
Loading historical data...
Loading historical data...
Loading historical data...

Documentation

Showing up to 5 results
|